Springfield, CO

1:48 PM MST on February 25, 2018 (GMT -0700)
Springfield

Weather History for KSPD - December, 2013

Change the Weather History Date:

Wednesday, December 11, 2013

  Actual Average Record
Temperature  
Mean Temperature 25 °F -  
Max Temperature 37 °F 47 °F 75 °F (2004)
Min Temperature 13 °F 19 °F 3 °F (2000)
Degree Days  
Heating Degree Days 40 32  
Month to date heating degree days 437 342  
Since 1 July heating degree days 1549 1488  
Cooling Degree Days 0 0  
Month to date cooling degree days 0 0  
Year to date cooling degree days 1358 1028  
Moisture  
Dew Point 13 °F    
Average Humidity 62    
Maximum Humidity 88    
Minimum Humidity 35    
Precipitation  
Precipitation 0.00 in 0.02 in 0.04 in (2007)
Month to date precipitation 0.00 0.22  
Year to date precipitation 14.25  
Sea Level Pressure  
Sea Level Pressure 30.44 in    
Wind  
Wind Speed 10 mph (SW)    
Max Wind Speed 25 mph    
Max Gust Speed 29 mph    
T = Trace of Precipitation, MM = Missing Value Source: NWS Daily Summary

Daily Weather History Graph

Daily Weather History Graph

Search for Another Location

Airport or City:

Trip Planner

Search our weather history database for the weather conditions in past years. The results will help you decide how hot, cold, wet, or windy it might be!

Date:

Astronomy

Dec. 11, 2013 Rise Set
Actual Time 6:54 AM MST 4:33 PM MST
Civil Twilight 6:25 AM MST 5:02 PM MST
Nautical Twilight 5:52 AM MST 5:34 PM MST
Astronomical Twilight 5:21 AM MST 6:06 PM MST
Moon 1:02 PM MST (12/11) 1:23 AM MST (12/11)
Length of Visible Light 10h 36m
Length of Day
9h 38m
Waxing Gibbous, 72% of the Moon is Illuminated
Dec 11
Waxing Gibbous
Dec 17
Full
Dec 25
Last Quarter
Jan 1
New
Jan 7
First Quarter

Hourly Weather History & Observations

Time (MST) Temp. Windchill Dew Point Humidity Pressure Visibility Wind Dir Wind Speed Gust Speed Precip Events Conditions
12:56 AM 19.9 °F 13.4 °F 12.0 °F 71% 30.27 in - NW 4.6 mph - N/A   Unknown
1:56 AM 12.9 °F 2.6 °F 8.1 °F 81% 30.31 in - NW 6.9 mph - N/A   Unknown
2:56 AM 17.1 °F 5.0 °F 10.9 °F 77% 30.32 in - NNW 10.4 mph - N/A   Unknown
3:56 AM 17.1 °F 5.8 °F 10.9 °F 77% 30.35 in - North 9.2 mph - N/A   Unknown
4:56 AM 16.0 °F 10.4 °F 10.9 °F 81% 30.42 in - NW 3.5 mph - N/A   Unknown
5:56 AM 17.1 °F 5.8 °F 12.0 °F 81% 30.47 in - North 9.2 mph - N/A   Unknown
6:56 AM 16.0 °F 8.8 °F 12.0 °F 84% 30.52 in - NNW 4.6 mph - N/A   Unknown
7:56 AM 19.9 °F - 16.0 °F 85% 30.53 in - Calm Calm - N/A   Unknown
8:56 AM 21.9 °F - 17.1 °F 82% 30.54 in - Calm Calm - N/A   Unknown
9:56 AM 24.1 °F 19.7 °F 17.1 °F 75% 30.56 in - South 3.5 mph - N/A   Unknown
10:56 AM 25.0 °F 20.7 °F 17.1 °F 72% 30.55 in - Variable 3.5 mph - N/A   Unknown
11:56 AM 30.9 °F 22.2 °F 17.1 °F 57% 30.49 in - SSW 10.4 mph - N/A   Unknown
12:56 PM 34.0 °F 24.6 °F 15.1 °F 46% 30.47 in - SSW 13.8 mph - N/A   Unknown
1:56 PM 36.0 °F 24.4 °F 14.0 °F 41% 30.44 in - South 23.0 mph 29.9 mph N/A   Unknown
2:56 PM 37.0 °F 25.9 °F 12.0 °F 36% 30.42 in - SSW 23.0 mph - N/A   Unknown
3:56 PM 35.1 °F 24.1 °F 12.0 °F 39% 30.42 in - South 19.6 mph 25.3 mph N/A   Unknown
4:56 PM 30.9 °F 19.8 °F 12.0 °F 46% 30.43 in - South 16.1 mph - N/A   Unknown
5:56 PM 28.9 °F 16.9 °F 12.9 °F 51% 30.44 in - South 17.3 mph - N/A   Unknown
6:56 PM 28.0 °F 17.0 °F 14.0 °F 56% 30.44 in - SSW 13.8 mph - N/A   Unknown
7:56 PM 26.1 °F 14.5 °F 14.0 °F 60% 30.44 in - SSW 13.8 mph - N/A   Unknown
8:56 PM 26.1 °F 15.0 °F 14.0 °F 60% 30.42 in - SSW 12.7 mph - N/A   Unknown
9:56 PM 23.0 °F 13.1 °F 14.0 °F 68% 30.43 in - SW 9.2 mph - N/A   Unknown
10:56 PM 19.9 °F - 12.0 °F 71% 30.43 in - Calm Calm - N/A   Unknown
11:56 PM 21.0 °F 13.4 °F 12.9 °F 71% 30.39 in - West 5.8 mph - N/A   Unknown